| time (UTC) | temp F | wind direction | speed MPH | gust MPH | rain 1hr in | rain 24hr in | rain mn in | humidity % | barometer mb |
| 20260906053128 | 85 | 175 | 4.0 | 8.0 | 0.00 | 0.00 | 0.00 | 69 | 1013.4 |
| 20260906052628 | 85 | 134 | 3.0 | 8.0 | 0.00 | 0.00 | 0.00 | 69 | 1013.5 |
| 20260906052130 | 85 | 166 | 3.0 | 6.0 | 0.00 | 0.00 | 0.00 | 69 | 1013.5 |
| 20260906051902 | 85 | 160 | 3.0 | 8.0 | 0.00 | 0.00 | 0.00 | 68 | 1013.5 |
| 20260906051128 | 85 | 157 | 3.0 | 9.0 | 0.00 | 0.00 | 0.00 | 68 | 1013.5 |
| 20260906050628 | 85 | 180 | 4.0 | 9.0 | 0.00 | 0.00 | 0.00 | 68 | 1013.5 |
| 20260906050129 | 85 | 180 | 3.0 | 8.0 | 0.00 | 0.00 | 0.00 | 68 | 1013.6 |
| 20260906045624 | 86 | 165 | 3.0 | 7.0 | 0.00 | 0.00 | 0.00 | 68 | 1013.5 |
| 20260906045118 | 86 | 171 | 3.0 | 8.0 | 0.00 | 0.00 | 0.00 | 67 | 1013.4 |
| 20260906044612 | 86 | 168 | 4.0 | 11.0 | 0.00 | 0.00 | 0.00 | 67 | 1013.6 |
| 20260906044109 | 86 | 151 | 4.0 | 11.0 | 0.00 | 0.00 | 0.00 | 67 | 1013.6 |
| 20260906044104 | 86 | 148 | 5.0 | 12.0 | 0.00 | 0.00 | 0.00 | 67 | 1013.4 |
| 20260906043054 | 86 | 151 | 5.0 | 12.0 | 0.00 | 0.00 | 0.00 | 67 | 1013.5 |
| 20260906042548 | 86 | 147 | 5.0 | 10.0 | 0.00 | 0.00 | 0.00 | 67 | 1013.5 |
| 20260906042042 | 86 | 151 | 4.0 | 10.0 | 0.00 | 0.00 | 0.00 | 66 | 1013.4 |
| 20260906041538 | 87 | 158 | 4.0 | 9.0 | 0.00 | 0.00 | 0.00 | 66 | 1013.3 |
| 20260906041533 | 87 | 148 | 5.0 | 10.0 | 0.00 | 0.00 | 0.00 | 66 | 1013.3 |
| 20260906040524 | 87 | 147 | 5.0 | 10.0 | 0.00 | 0.00 | 0.00 | 66 | 1013.3 |
| 20260906040018 | 87 | 139 | 5.0 | 11.0 | 0.00 | 0.00 | 0.00 | 65 | 1013.2 |
| 20260906035512 | 87 | 143 | 5.0 | 12.0 | 0.00 | 0.00 | 0.00 | 65 | 1013.2 |
| 20260906035006 | 87 | 128 | 5.0 | 12.0 | 0.00 | 0.00 | 0.00 | 64 | 1013.2 |
| 20260906034459 | 87 | 142 | 4.0 | 9.0 | 0.00 | 0.00 | 0.00 | 64 | 1013.3 |
| 20260906033954 | 87 | 142 | 5.0 | 11.0 | 0.00 | 0.00 | 0.00 | 63 | 1013.3 |
| 20260906033448 | 88 | 132 | 5.0 | 11.0 | 0.00 | 0.00 | 0.00 | 63 | 1013.3 |
| 20260906032942 | 88 | 130 | 6.0 | 10.0 | 0.00 | 0.00 | 0.00 | 63 | 1013.3 |
| 20260906032439 | 88 | 119 | 6.0 | 11.0 | 0.00 | 0.00 | 0.00 | 62 | 1013.3 |
| 20260906031939 | 88 | 146 | 5.0 | 11.0 | 0.00 | 0.00 | 0.00 | 62 | 1013.1 |
| 20260906031439 | 88 | 146 | 5.0 | 11.0 | 0.00 | 0.00 | 0.00 | 61 | 1013.1 |
| 20260906031210 | 89 | 152 | 5.0 | 11.0 | 0.00 | 0.00 | 0.00 | 61 | 1012.9 |
| 20260906030441 | 89 | 125 | 5.0 | 11.0 | 0.00 | 0.00 | 0.00 | 60 | 1012.9 |
| 20260906030209 | 89 | 140 | 4.0 | 11.0 | 0.00 | 0.00 | 0.00 | 60 | 1012.6 |
| 20260906025438 | 89 | 145 | 5.0 | 11.0 | 0.00 | 0.00 | 0.00 | 59 | 1012.5 |
| 20260906024937 | 89 | 137 | 5.0 | 11.0 | 0.00 | 0.00 | 0.00 | 59 | 1012.4 |
| 20260906024436 | 89 | 156 | 5.0 | 12.0 | 0.00 | 0.00 | 0.00 | 59 | 1012.2 |
| 20260906023936 | 90 | 105 | 5.0 | 12.0 | 0.00 | 0.00 | 0.00 | 59 | 1012.0 |
| 20260906023707 | 90 | 111 | 5.0 | 10.0 | 0.00 | 0.00 | 0.00 | 58 | 1011.8 |
| 20260906022938 | 90 | 171 | 4.0 | 10.0 | 0.00 | 0.00 | 0.00 | 58 | 1011.7 |
| 20260906022438 | 90 | 94 | 3.0 | 9.0 | 0.00 | 0.00 | 0.00 | 58 | 1011.6 |
| 20260906021936 | 90 | 79 | 3.0 | 9.0 | 0.00 | 0.00 | 0.00 | 57 | 1011.4 |
| 20260906021436 | 90 | 117 | 3.0 | 9.0 | 0.00 | 0.00 | 0.00 | 57 | 1011.4 |
| 20260906020938 | 90 | 107 | 3.0 | 8.0 | 0.00 | 0.00 | 0.00 | 57 | 1011.2 |
| 20260906020707 | 91 | 100 | 3.0 | 8.0 | 0.00 | 0.00 | 0.00 | 56 | 1011.2 |
| 20260906015937 | 91 | 136 | 3.0 | 8.0 | 0.00 | 0.00 | 0.00 | 56 | 1011.2 |
| 20260906015439 | 91 | 149 | 4.0 | 8.0 | 0.00 | 0.00 | 0.00 | 55 | 1011.1 |
| 20260906014938 | 91 | 102 | 4.0 | 10.0 | 0.00 | 0.00 | 0.00 | 55 | 1011.2 |
| 20260906014437 | 91 | 150 | 3.0 | 10.0 | 0.00 | 0.00 | 0.00 | 54 | 1011.1 |
| 20260906013937 | 91 | 115 | 3.0 | 9.0 | 0.00 | 0.00 | 0.00 | 54 | 1011.1 |
| 20260906013436 | 91 | 144 | 2.0 | 9.0 | 0.00 | 0.00 | 0.00 | 54 | 1011.0 |
| 20260906012936 | 91 | 145 | 2.0 | 6.0 | 0.00 | 0.00 | 0.00 | 54 | 1011.0 |
| 20260906012437 | 91 | 105 | 2.0 | 6.0 | 0.00 | 0.00 | 0.00 | 54 | 1011.0 |
| 20260906011938 | 92 | 134 | 3.0 | 7.0 | 0.00 | 0.00 | 0.00 | 54 | 1011.0 |
| 20260906011437 | 92 | 164 | 4.0 | 12.0 | 0.00 | 0.00 | 0.00 | 54 | 1011.0 |
| 20260906011208 | 92 | 148 | 5.0 | 12.0 | 0.00 | 0.00 | 0.00 | 53 | 1011.0 |
| 20260906010709 | 93 | 62 | 5.0 | 11.0 | 0.00 | 0.00 | 0.00 | 52 | 1011.0 |
| 20260906005935 | 93 | 112 | 5.0 | 11.0 | 0.00 | 0.00 | 0.00 | 51 | 1010.9 |
| 20260906005429 | 94 | 137 | 5.0 | 11.0 | 0.00 | 0.00 | 0.00 | 50 | 1011.0 |
| 20260906004922 | 94 | 118 | 4.0 | 11.0 | 0.00 | 0.00 | 0.00 | 48 | 1010.8 |
| 20260906004418 | 95 | 133 | 3.0 | 11.0 | 0.00 | 0.00 | 0.00 | 47 | 1010.6 |
| 20260906003912 | 95 | 129 | 4.0 | 10.0 | 0.00 | 0.00 | 0.00 | 47 | 1010.7 |
| 20260906003906 | 95 | 167 | 5.0 | 10.0 | 0.00 | 0.00 | 0.00 | 47 | 1010.6 |
| 20260906003128 | 95 | 129 | 5.0 | 10.0 | 0.00 | 0.00 | 0.00 | 46 | 1010.7 |
| 20260906002631 | 95 | 53 | 4.0 | 10.0 | 0.00 | 0.00 | 0.00 | 45 | 1010.6 |
| 20260906001858 | 95 | 83 | 2.0 | 7.0 | 0.00 | 0.00 | 0.00 | 45 | 1010.6 |
| 20260906001356 | 95 | 127 | 2.0 | 4.0 | 0.00 | 0.00 | 0.00 | 45 | 1010.6 |
| 20260906000857 | 95 | 130 | 2.0 | 5.0 | 0.00 | 0.00 | 0.00 | 44 | 1010.5 |
| 20260906000358 | 95 | 140 | 3.0 | 7.0 | 0.00 | 0.00 | 0.00 | 45 | 1010.5 |
| 20260905235854 | 96 | 131 | 3.0 | 7.0 | 0.00 | 0.00 | 0.00 | 44 | 1010.5 |
| 20260905235354 | 96 | 144 | 3.0 | 7.0 | 0.00 | 0.00 | 0.00 | 44 | 1010.4 |
| 20260905234854 | 96 | 168 | 3.0 | 8.0 | 0.00 | 0.00 | 0.00 | 44 | 1010.4 |
| 20260905234357 | 96 | 154 | 2.0 | 8.0 | 0.00 | 0.00 | 0.00 | 43 | 1010.3 |
| 20260905233855 | 96 | 138 | 1.0 | 7.0 | 0.00 | 0.00 | 0.00 | 44 | 1010.4 |
| 20260905233354 | 96 | 61 | 2.0 | 5.0 | 0.00 | 0.00 | 0.00 | 44 | 1010.4 |
| 20260905232852 | 96 | 63 | 2.0 | 5.0 | 0.00 | 0.00 | 0.00 | 44 | 1010.5 |
| 20260905232349 | 96 | 90 | 2.0 | 5.0 | 0.00 | 0.00 | 0.00 | 43 | 1010.4 |
| 20260905232119 | 96 | 82 | 2.0 | 6.0 | 0.00 | 0.00 | 0.00 | 43 | 1010.5 |
| 20260905231348 | 97 | 152 | 2.0 | 6.0 | 0.00 | 0.00 | 0.00 | 42 | 1010.5 |
| 20260905230848 | 97 | 153 | 2.0 | 6.0 | 0.00 | 0.00 | 0.00 | 43 | 1010.4 |
| 20260905230348 | 97 | 115 | 3.0 | 7.0 | 0.00 | 0.00 | 0.00 | 42 | 1010.4 |
| 20260905225849 | 97 | 84 | 3.0 | 7.0 | 0.00 | 0.00 | 0.00 | 41 | 1010.5 |
| 20260905225343 | 97 | 163 | 2.0 | 7.0 | 0.00 | 0.00 | 0.00 | 41 | 1010.4 |
| 20260905225107 | 97 | 15 | 2.0 | 5.0 | 0.00 | 0.00 | 0.00 | 41 | 1010.3 |
| 20260905224331 | 98 | 18 | 1.0 | 4.0 | 0.00 | 0.00 | 0.00 | 41 | 1010.3 |
| 20260905223824 | 98 | 20 | 1.0 | 5.0 | 0.00 | 0.00 | 0.00 | 40 | 1010.4 |
| 20260905223319 | 98 | 19 | 2.0 | 9.0 | 0.00 | 0.00 | 0.00 | 40 | 1010.4 |
| 20260905222813 | 98 | 64 | 2.0 | 9.0 | 0.00 | 0.00 | 0.00 | 40 | 1010.5 |
| 20260905222307 | 98 | 100 | 2.0 | 5.0 | 0.00 | 0.00 | 0.00 | 40 | 1010.5 |
| 20260905221801 | 98 | 99 | 2.0 | 6.0 | 0.00 | 0.00 | 0.00 | 39 | 1010.6 |
| 20260905221255 | 98 | 348 | 2.0 | 6.0 | 0.00 | 0.00 | 0.00 | 40 | 1010.5 |
| 20260905220749 | 98 | 113 | 2.0 | 7.0 | 0.00 | 0.00 | 0.00 | 39 | 1010.7 |
| 20260905220244 | 98 | 9 | 2.0 | 7.0 | 0.00 | 0.00 | 0.00 | 40 | 1010.7 |
| 20260905220239 | 98 | 24 | 3.0 | 9.0 | 0.00 | 0.00 | 0.00 | 40 | 1010.7 |
| 20260905215231 | 98 | 51 | 3.0 | 11.0 | 0.00 | 0.00 | 0.00 | 40 | 1010.7 |
| 20260905214725 | 98 | 39 | 3.0 | 11.0 | 0.00 | 0.00 | 0.00 | 39 | 1010.6 |
| 20260905214218 | 98 | 17 | 3.0 | 10.0 | 0.00 | 0.00 | 0.00 | 39 | 1010.7 |
| 20260905213945 | 98 | 0 | 2.0 | 7.0 | 0.00 | 0.00 | 0.00 | 39 | 1010.7 |
| 20260905213214 | 98 | 55 | 2.0 | 7.0 | 0.00 | 0.00 | 0.00 | 39 | 1010.7 |
| 20260905212713 | 98 | 93 | 2.0 | 7.0 | 0.00 | 0.00 | 0.00 | 39 | 1010.7 |
| 20260905212213 | 99 | 184 | 2.0 | 6.0 | 0.00 | 0.00 | 0.00 | 40 | 1010.6 |
| 20260905211713 | 99 | 159 | 1.0 | 6.0 | 0.00 | 0.00 | 0.00 | 40 | 1010.7 |
| 20260905211212 | 98 | 174 | 1.0 | 6.0 | 0.00 | 0.00 | 0.00 | 40 | 1010.8 |
| 20260905210710 | 99 | 175 | 4.0 | 9.0 | 0.00 | 0.00 | 0.00 | 40 | 1010.9 |
| 20260905210210 | 99 | 136 | 4.0 | 9.0 | 0.00 | 0.00 | 0.00 | 39 | 1010.9 |
| 20260905205941 | 100 | 178 | 2.0 | 9.0 | 0.00 | 0.00 | 0.00 | 39 | 1010.9 |
| 20260905205210 | 100 | 181 | 3.0 | 9.0 | 0.00 | 0.00 | 0.00 | 39 | 1011.1 |
| 20260905204710 | 100 | 11 | 4.0 | 8.0 | 0.00 | 0.00 | 0.00 | 39 | 1011.2 |
| 20260905204210 | 100 | 49 | 3.0 | 8.0 | 0.00 | 0.00 | 0.00 | 39 | 1011.3 |
| 20260905203710 | 101 | 105 | 2.0 | 8.0 | 0.00 | 0.00 | 0.00 | 37 | 1011.4 |
| 20260905203441 | 102 | 171 | 1.0 | 6.0 | 0.00 | 0.00 | 0.00 | 38 | 1011.5 |
| 20260905202710 | 103 | 171 | 2.0 | 6.0 | 0.00 | 0.00 | 0.00 | 37 | 1011.6 |
| 20260905202210 | 103 | 30 | 3.0 | 11.0 | 0.00 | 0.00 | 0.00 | 38 | 1011.6 |
| 20260905201711 | 103 | 124 | 3.0 | 11.0 | 0.00 | 0.00 | 0.00 | 37 | 1011.7 |
| 20260905201211 | 104 | 208 | 2.0 | 8.0 | 0.00 | 0.00 | 0.00 | 36 | 1011.6 |
| 20260905200704 | 103 | 173 | 2.0 | 8.0 | 0.00 | 0.00 | 0.00 | 38 | 1011.9 |
| 20260905200202 | 103 | 165 | 2.0 | 9.0 | 0.00 | 0.00 | 0.00 | 39 | 1011.9 |
| 20260905200157 | 103 | 164 | 3.0 | 9.0 | 0.00 | 0.00 | 0.00 | 38 | 1012.2 |
| 20260905195417 | 103 | 169 | 3.0 | 8.0 | 0.00 | 0.00 | 0.00 | 38 | 1012.3 |
| 20260905194918 | 103 | 118 | 3.0 | 8.0 | 0.00 | 0.00 | 0.00 | 38 | 1012.4 |
| 20260905194147 | 103 | 119 | 2.0 | 9.0 | 0.00 | 0.00 | 0.00 | 39 | 1012.4 |
| 20260905193645 | 102 | 29 | 4.0 | 11.0 | 0.00 | 0.00 | 0.00 | 38 | 1012.4 |
| 20260905193146 | 103 | 162 | 4.0 | 11.0 | 0.00 | 0.00 | 0.00 | 38 | 1012.6 |
| 20260905192647 | 103 | 151 | 3.0 | 7.0 | 0.00 | 0.00 | 0.00 | 39 | 1012.5 |
| 20260905192146 | 103 | 108 | 4.0 | 10.0 | 0.00 | 0.00 | 0.00 | 39 | 1012.6 |
| 20260905191646 | 103 | 121 | 3.0 | 10.0 | 0.00 | 0.00 | 0.00 | 38 | 1012.5 |
| 20260905191146 | 103 | 188 | 2.0 | 9.0 | 0.00 | 0.00 | 0.00 | 36 | 1012.6 |
| 20260905190646 | 103 | 175 | 2.0 | 7.0 | 0.00 | 0.00 | 0.00 | 37 | 1012.8 |
| 20260905190147 | 102 | 108 | 2.0 | 5.0 | 0.00 | 0.00 | 0.00 | 39 | 1012.9 |
| 20260905185646 | 102 | 153 | 2.0 | 8.0 | 0.00 | 0.00 | 0.00 | 39 | 1013.1 |
| 20260905185147 | 101 | 152 | 2.0 | 8.0 | 0.00 | 0.00 | 0.00 | 39 | 1013.2 |
| 20260905184646 | 101 | 176 | 2.0 | 8.0 | 0.00 | 0.00 | 0.00 | 39 | 1013.3 |
| 20260905184146 | 100 | 164 | 2.0 | 7.0 | 0.00 | 0.00 | 0.00 | 42 | 1013.3 |
| 20260905183647 | 100 | 119 | 3.0 | 8.0 | 0.00 | 0.00 | 0.00 | 41 | 1013.6 |
| 20260905183147 | 99 | 155 | 3.0 | 9.0 | 0.00 | 0.00 | 0.00 | 39 | 1013.5 |
| 20260905182642 | 99 | 182 | 2.0 | 9.0 | 0.00 | 0.00 | 0.00 | 41 | 1013.6 |
| 20260905182143 | 99 | 155 | 3.0 | 9.0 | 0.00 | 0.00 | 0.00 | 43 | 1013.8 |
| 20260905181643 | 98 | 191 | 4.0 | 10.0 | 0.00 | 0.00 | 0.00 | 43 | 1013.9 |
| 20260905181413 | 98 | 124 | 4.0 | 10.0 | 0.00 | 0.00 | 0.00 | 44 | 1014.0 |
| 20260905180641 | 98 | 129 | 3.0 | 10.0 | 0.00 | 0.00 | 0.00 | 45 | 1014.0 |
| 20260905180146 | 96 | 111 | 3.0 | 9.0 | 0.00 | 0.00 | 0.00 | 47 | 1014.1 |
| 20260905180141 | 97 | 138 | 3.0 | 9.0 | 0.00 | 0.00 | 0.00 | 47 | 1014.0 |
| 20260905175143 | 96 | 322 | 3.0 | 7.0 | 0.00 | 0.00 | 0.00 | 49 | 1014.3 |
| 20260905174643 | 95 | 146 | 3.0 | 8.0 | 0.00 | 0.00 | 0.00 | 48 | 1014.3 |
| 20260905174139 | 95 | 123 | 3.0 | 8.0 | 0.00 | 0.00 | 0.00 | 47 | 1014.4 |
| 20260905173909 | 94 | 130 | 2.0 | 8.0 | 0.00 | 0.00 | 0.00 | 49 | 1014.5 |
| 20260905173139 | 94 | 186 | 2.0 | 6.0 | 0.00 | 0.00 | 0.00 | 51 | 1014.5 |
| 20260905172639 | 93 | 159 | 4.0 | 10.0 | 0.00 | 0.00 | 0.00 | 54 | 1014.7 |
| 20260905172137 | 92 | 135 | 3.0 | 10.0 | 0.00 | 0.00 | 0.00 | 53 | 1014.7 |
| 20260905171908 | 92 | 124 | 2.0 | 10.0 | 0.00 | 0.00 | 0.00 | 56 | 1014.8 |
| 20260905171142 | 91 | 106 | 3.0 | 8.0 | 0.00 | 0.00 | 0.00 | 57 | 1014.9 |
| 20260905171138 | 91 | 221 | 2.0 | 6.0 | 0.00 | 0.00 | 0.00 | 56 | 1014.8 |
| 20260905170139 | 90 | 183 | 2.0 | 8.0 | 0.00 | 0.00 | 0.00 | 57 | 1015.0 |
| 20260905165902 | 90 | 198 | 2.0 | 9.0 | 0.00 | 0.00 | 0.00 | 59 | 1015.0 |
| 20260905165126 | 89 | 239 | 3.0 | 9.0 | 0.00 | 0.00 | 0.00 | 59 | 1015.1 |
| 20260905164623 | 89 | 155 | 2.0 | 8.0 | 0.00 | 0.00 | 0.00 | 60 | 1015.1 |
| 20260905164617 | 89 | 134 | 3.0 | 7.0 | 0.00 | 0.00 | 0.00 | 61 | 1015.0 |
| 20260905163608 | 88 | 148 | 2.0 | 7.0 | 0.00 | 0.00 | 0.00 | 61 | 1015.2 |
| 20260905163101 | 88 | 241 | 1.0 | 5.0 | 0.00 | 0.00 | 0.00 | 63 | 1015.2 |
| 20260905162556 | 88 | 165 | 1.0 | 5.0 | 0.00 | 0.00 | 0.00 | 62 | 1015.2 |
| 20260905162054 | 89 | 161 | 1.0 | 5.0 | 0.00 | 0.00 | 0.00 | 64 | 1015.2 |
| 20260905161553 | 89 | 141 | 2.0 | 7.0 | 0.00 | 0.00 | 0.00 | 64 | 1015.2 |
| 20260905161053 | 89 | 213 | 1.0 | 7.0 | 0.00 | 0.00 | 0.00 | 65 | 1015.2 |
| 20260905160550 | 88 | 188 | 1.0 | 7.0 | 0.00 | 0.00 | 0.00 | 66 | 1015.2 |
| 20260905160050 | 88 | 178 | 2.0 | 7.0 | 0.00 | 0.00 | 0.00 | 65 | 1015.2 |
| 20260905155551 | 88 | 185 | 3.0 | 6.0 | 0.00 | 0.00 | 0.00 | 66 | 1015.1 |
| 20260905155049 | 88 | 183 | 4.0 | 9.0 | 0.00 | 0.00 | 0.00 | 68 | 1015.1 |
| 20260905154550 | 87 | 170 | 4.0 | 9.0 | 0.00 | 0.00 | 0.00 | 68 | 1014.9 |
| 20260905154049 | 87 | 130 | 3.0 | 9.0 | 0.00 | 0.00 | 0.00 | 70 | 1015.0 |
| 20260905153549 | 86 | 125 | 2.0 | 6.0 | 0.00 | 0.00 | 0.00 | 73 | 1015.1 |
| 20260905153321 | 86 | 164 | 1.0 | 6.0 | 0.00 | 0.00 | 0.00 | 74 | 1015.1 |
| 20260905152548 | 85 | 227 | 0.0 | 3.0 | 0.00 | 0.00 | 0.00 | 76 | 1015.2 |
| 20260905152048 | 85 | 220 | 0.0 | 0.0 | 0.00 | 0.00 | 0.00 | 78 | 1015.2 |
| 20260905151548 | 84 | 221 | 1.0 | 4.0 | 0.00 | 0.00 | 0.00 | 79 | 1015.2 |
| 20260905151046 | 84 | 221 | 1.0 | 4.0 | 0.00 | 0.00 | 0.00 | 80 | 1015.3 |
| 20260905150547 | 83 | 216 | 1.0 | 6.0 | 0.00 | 0.00 | 0.00 | 81 | 1015.2 |
| 20260905150047 | 83 | 214 | 1.0 | 6.0 | 0.00 | 0.00 | 0.00 | 81 | 1015.1 |
| 20260905145544 | 82 | 124 | 1.0 | 5.0 | 0.00 | 0.00 | 0.00 | 83 | 1015.1 |
| 20260905145038 | 82 | 179 | 0.0 | 6.0 | 0.00 | 0.00 | 0.00 | 84 | 1014.9 |
| 20260905144802 | 82 | 188 | 1.0 | 6.0 | 0.00 | 0.00 | 0.00 | 84 | 1014.9 |
| 20260905144026 | 81 | 188 | 1.0 | 4.0 | 0.00 | 0.00 | 0.00 | 85 | 1014.9 |
| 20260905143520 | 81 | 186 | 1.0 | 6.0 | 0.00 | 0.00 | 0.00 | 85 | 1014.9 |
| 20260905143014 | 81 | 186 | 1.0 | 6.0 | 0.00 | 0.00 | 0.00 | 86 | 1015.1 |
| 20260905142508 | 81 | 140 | 1.0 | 6.0 | 0.00 | 0.00 | 0.00 | 86 | 1015.1 |
| 20260905142232 | 80 | 133 | 2.0 | 6.0 | 0.00 | 0.00 | 0.00 | 87 | 1015.1 |
| 20260905141456 | 80 | 121 | 2.0 | 6.0 | 0.00 | 0.00 | 0.00 | 87 | 1015.1 |
| 20260905140952 | 80 | 117 | 2.0 | 6.0 | 0.00 | 0.00 | 0.00 | 87 | 1015.0 |
| 20260905140947 | 80 | 159 | 2.0 | 6.0 | 0.00 | 0.00 | 0.00 | 87 | 1014.9 |
| 20260905140210 | 79 | 164 | 1.0 | 5.0 | 0.00 | 0.00 | 0.00 | 88 | 1014.9 |
| 20260905135702 | 79 | 163 | 2.0 | 4.0 | 0.00 | 0.00 | 0.00 | 88 | 1014.9 |
| 20260905134926 | 79 | 165 | 1.0 | 4.0 | 0.00 | 0.00 | 0.00 | 87 | 1014.9 |
| 20260905134652 | 79 | 165 | 0.0 | 4.0 | 0.00 | 0.00 | 0.00 | 88 | 1014.9 |
| 20260905134144 | 78 | 165 | 0.0 | 0.0 | 0.00 | 0.00 | 0.00 | 87 | 1014.9 |
| 20260905133408 | 78 | 165 | 0.0 | 0.0 | 0.00 | 0.00 | 0.00 | 87 | 1014.8 |
| 20260905132902 | 78 | 165 | 0.0 | 0.0 | 0.00 | 0.00 | 0.00 | 87 | 1014.8 |
| 20260905132355 | 77 | 165 | 0.0 | 2.0 | 0.00 | 0.00 | 0.00 | 87 | 1014.8 |
| 20260905131850 | 77 | 165 | 0.0 | 2.0 | 0.00 | 0.00 | 0.00 | 87 | 1014.7 |
| 20260905131343 | 77 | 165 | 0.0 | 1.0 | 0.00 | 0.00 | 0.00 | 87 | 1014.6 |
| 20260905130838 | 76 | 165 | 0.0 | 0.0 | 0.00 | 0.00 | 0.00 | 86 | 1014.6 |
| 20260905130833 | 76 | 165 | 0.0 | 0.0 | 0.00 | 0.00 | 0.00 | 86 | 1014.5 |
| 20260905125825 | 76 | 165 | 0.0 | 0.0 | 0.00 | 0.00 | 0.00 | 86 | 1014.3 |
| 20260905125552 | 76 | 165 | 0.0 | 0.0 | 0.00 | 0.00 | 0.00 | 86 | 1014.3 |
| 20260905124814 | 76 | 165 | 0.0 | 0.0 | 0.00 | 0.00 | 0.00 | 86 | 1014.2 |
| 20260905124308 | 76 | 165 | 0.0 | 1.0 | 0.00 | 0.00 | 0.00 | 86 | 1014.2 |
| 20260905123802 | 76 | 165 | 0.0 | 1.0 | 0.00 | 0.00 | 0.00 | 85 | 1014.0 |
| 20260905123256 | 76 | 165 | 0.0 | 0.0 | 0.00 | 0.00 | 0.00 | 86 | 1014.0 |
| 20260905122750 | 76 | 165 | 0.0 | 0.0 | 0.00 | 0.00 | 0.00 | 85 | 1014.2 |
| 20260905122243 | 76 | 165 | 0.0 | 0.0 | 0.00 | 0.00 | 0.00 | 85 | 1014.1 |
| 20260905121739 | 76 | 165 | 0.0 | 0.0 | 0.00 | 0.00 | 0.00 | 85 | 1014.2 |
| 20260905121232 | 76 | 165 | 0.0 | 0.0 | 0.00 | 0.00 | 0.00 | 85 | 1014.2 |
| 20260905120732 | 76 | 165 | 0.0 | 0.0 | 0.00 | 0.00 | 0.00 | 85 | 1014.1 |
| 20260905120229 | 76 | 165 | 0.0 | 0.0 | 0.00 | 0.00 | 0.00 | 85 | 1013.9 |
| 20260905115728 | 77 | 165 | 0.0 | 1.0 | 0.00 | 0.00 | 0.00 | 85 | 1013.9 |
| 20260905115224 | 77 | 165 | 0.0 | 1.0 | 0.00 | 0.00 | 0.00 | 85 | 1013.9 |
| 20260905114723 | 77 | 165 | 0.0 | 0.0 | 0.00 | 0.00 | 0.00 | 85 | 1013.9 |
| 20260905114223 | 77 | 165 | 0.0 | 0.0 | 0.00 | 0.00 | 0.00 | 85 | 1013.9 |
| 20260905113724 | 77 | 165 | 0.0 | 0.0 | 0.00 | 0.00 | 0.00 | 85 | 1013.8 |
| 20260905113221 | 77 | 165 | 0.0 | 0.0 | 0.00 | 0.00 | 0.00 | 85 | 1013.9 |
| 20260905112719 | 77 | 165 | 0.0 | 0.0 | 0.00 | 0.00 | 0.00 | 85 | 1013.8 |
| 20260905112219 | 77 | 165 | 0.0 | 0.0 | 0.00 | 0.00 | 0.00 | 85 | 1013.9 |
| 20260905111719 | 77 | 165 | 0.0 | 0.0 | 0.00 | 0.00 | 0.00 | 85 | 1013.7 |
| 20260905111218 | 77 | 165 | 0.0 | 1.0 | 0.00 | 0.00 | 0.00 | 85 | 1013.8 |
| 20260905110716 | 78 | 165 | 0.0 | 1.0 | 0.00 | 0.00 | 0.00 | 85 | 1013.7 |
| 20260905110444 | 78 | 165 | 0.0 | 0.0 | 0.00 | 0.00 | 0.00 | 85 | 1013.7 |
| 20260905105716 | 78 | 165 | 0.0 | 0.0 | 0.00 | 0.00 | 0.00 | 84 | 1013.6 |
| 20260905105712 | 78 | 165 | 0.0 | 0.0 | 0.00 | 0.00 | 0.00 | 85 | 1013.8 |
| 20260905104706 | 78 | 165 | 0.0 | 0.0 | 0.00 | 0.00 | 0.00 | 84 | 1013.5 |
| 20260905104204 | 78 | 165 | 0.0 | 0.0 | 0.00 | 0.00 | 0.00 | 84 | 1013.5 |
| 20260905103705 | 78 | 165 | 0.0 | 0.0 | 0.00 | 0.00 | 0.00 | 84 | 1013.7 |
| 20260905103206 | 78 | 165 | 0.0 | 0.0 | 0.00 | 0.00 | 0.00 | 84 | 1013.6 |
| 20260905102704 | 78 | 165 | 0.0 | 0.0 | 0.00 | 0.00 | 0.00 | 84 | 1013.6 |
| 20260905102203 | 78 | 165 | 0.0 | 0.0 | 0.00 | 0.00 | 0.00 | 84 | 1013.8 |
| 20260905101700 | 78 | 165 | 0.0 | 0.0 | 0.00 | 0.00 | 0.00 | 84 | 1013.6 |
| 20260905101200 | 78 | 165 | 0.0 | 0.0 | 0.00 | 0.00 | 0.00 | 84 | 1013.5 |
| 20260905100701 | 78 | 165 | 0.0 | 0.0 | 0.00 | 0.00 | 0.00 | 84 | 1013.6 |
| 20260905100202 | 78 | 165 | 0.0 | 0.0 | 0.00 | 0.00 | 0.00 | 84 | 1013.6 |
| 20260905095702 | 78 | 165 | 0.0 | 1.0 | 0.00 | 0.00 | 0.00 | 84 | 1013.6 |
| 20260905095201 | 78 | 165 | 0.0 | 2.0 | 0.00 | 0.00 | 0.00 | 84 | 1013.5 |
| 20260905094701 | 78 | 165 | 0.0 | 2.0 | 0.00 | 0.00 | 0.00 | 84 | 1013.4 |
| 20260905094202 | 78 | 165 | 0.0 | 1.0 | 0.00 | 0.00 | 0.00 | 83 | 1013.4 |
| 20260905093931 | 78 | 165 | 0.0 | 1.0 | 0.00 | 0.00 | 0.00 | 83 | 1013.4 |
| 20260905093434 | 78 | 165 | 0.0 | 1.0 | 0.00 | 0.00 | 0.00 | 83 | 1013.4 |
| 20260905092702 | 79 | 165 | 0.0 | 1.0 | 0.00 | 0.00 | 0.00 | 83 | 1013.4 |
| 20260905092200 | 79 | 165 | 0.0 | 0.0 | 0.00 | 0.00 | 0.00 | 83 | 1013.3 |
| 20260905091701 | 79 | 165 | 0.0 | 1.0 | 0.00 | 0.00 | 0.00 | 83 | 1013.3 |
| 20260905091201 | 79 | 165 | 0.0 | 1.0 | 0.00 | 0.00 | 0.00 | 83 | 1013.5 |
| 20260905090700 | 79 | 165 | 0.0 | 1.0 | 0.00 | 0.00 | 0.00 | 83 | 1013.5 |
| 20260905090200 | 79 | 165 | 0.0 | 1.0 | 0.00 | 0.00 | 0.00 | 83 | 1013.5 |
| 20260905085931 | 79 | 165 | 0.0 | 2.0 | 0.00 | 0.00 | 0.00 | 83 | 1013.5 |
| 20260905085202 | 79 | 165 | 0.0 | 2.0 | 0.00 | 0.00 | 0.00 | 83 | 1013.5 |
| 20260905084702 | 79 | 165 | 1.0 | 4.0 | 0.00 | 0.00 | 0.00 | 83 | 1013.7 |
| 20260905084200 | 79 | 165 | 1.0 | 4.0 | 0.00 | 0.00 | 0.00 | 82 | 1013.7 |
| 20260905083657 | 79 | 165 | 1.0 | 2.0 | 0.00 | 0.00 | 0.00 | 82 | 1013.7 |
| 20260905083158 | 79 | 165 | 1.0 | 4.0 | 0.00 | 0.00 | 0.00 | 82 | 1013.8 |
| 20260905082654 | 79 | 165 | 1.0 | 4.0 | 0.00 | 0.00 | 0.00 | 82 | 1013.8 |
| 20260905082152 | 79 | 165 | 1.0 | 4.0 | 0.00 | 0.00 | 0.00 | 82 | 1013.8 |
| 20260905081651 | 79 | 165 | 1.0 | 6.0 | 0.00 | 0.00 | 0.00 | 82 | 1013.8 |
| 20260905081420 | 80 | 165 | 2.0 | 6.0 | 0.00 | 0.00 | 0.00 | 82 | 1013.8 |
| 20260905081037 | 80 | 162 | 1.0 | 6.0 | 0.00 | 0.00 | 0.00 | 81 | 1014.0 |
| 20260905080923 | 80 | 162 | 1.0 | 6.0 | 0.00 | 0.00 | 0.00 | 81 | 1013.9 |
| 20260905075645 | 80 | 135 | 1.0 | 4.0 | 0.00 | 0.00 | 0.00 | 81 | 1013.9 |
| 20260905075142 | 80 | 135 | 1.0 | 4.0 | 0.00 | 0.00 | 0.00 | 81 | 1014.0 |
| 20260905074642 | 80 | 134 | 1.0 | 3.0 | 0.00 | 0.00 | 0.00 | 81 | 1014.0 |
| 20260905074142 | 80 | 134 | 1.0 | 4.0 | 0.00 | 0.00 | 0.00 | 81 | 1014.0 |
| 20260905073643 | 80 | 134 | 1.0 | 4.0 | 0.00 | 0.00 | 0.00 | 81 | 1014.0 |
| 20260905073137 | 80 | 134 | 2.0 | 4.0 | 0.00 | 0.00 | 0.00 | 80 | 1014.2 |
| 20260905072631 | 80 | 134 | 2.0 | 4.0 | 0.00 | 0.00 | 0.00 | 80 | 1014.1 |
| 20260905072124 | 80 | 133 | 2.0 | 4.0 | 0.00 | 0.00 | 0.00 | 80 | 1014.2 |
| 20260905071619 | 80 | 133 | 2.0 | 4.0 | 0.00 | 0.00 | 0.00 | 80 | 1014.3 |
| 20260905071112 | 80 | 132 | 2.0 | 4.0 | 0.00 | 0.00 | 0.00 | 80 | 1014.3 |
| 20260905070607 | 80 | 179 | 2.0 | 4.0 | 0.00 | 0.00 | 0.00 | 80 | 1014.4 |
| 20260905070101 | 80 | 180 | 2.0 | 5.0 | 0.00 | 0.00 | 0.00 | 79 | 1014.3 |
| 20260905065554 | 80 | 175 | 2.0 | 5.0 | 0.00 | 0.00 | 0.00 | 79 | 1014.2 |
| 20260905065048 | 81 | 162 | 2.0 | 5.0 | 0.00 | 0.00 | 0.00 | 79 | 1014.3 |
| 20260905064815 | 81 | 155 | 2.0 | 6.0 | 0.00 | 0.00 | 0.00 | 79 | 1014.3 |
| 20260905064036 | 81 | 152 | 2.0 | 6.0 | 0.00 | 0.00 | 0.00 | 79 | 1014.2 |
| 20260905063530 | 81 | 146 | 3.0 | 8.0 | 0.00 | 0.00 | 0.00 | 79 | 1014.3 |
| 20260905063025 | 81 | 148 | 3.0 | 8.0 | 0.00 | 0.00 | 0.00 | 79 | 1014.3 |
| 20260905062519 | 81 | 139 | 3.0 | 7.0 | 0.00 | 0.00 | 0.00 | 78 | 1014.2 |
| 20260905062013 | 81 | 144 | 3.0 | 7.0 | 0.00 | 0.00 | 0.00 | 78 | 1014.2 |
| 20260905061507 | 81 | 155 | 3.0 | 7.0 | 0.00 | 0.00 | 0.00 | 78 | 1014.3 |
| 20260905061231 | 81 | 157 | 3.0 | 7.0 | 0.00 | 0.00 | 0.00 | 78 | 1014.3 |
| 20260905060455 | 81 | 154 | 3.0 | 9.0 | 0.00 | 0.00 | 0.00 | 78 | 1014.2 |
| 20260905055949 | 81 | 168 | 4.0 | 9.0 | 0.00 | 0.00 | 0.00 | 77 | 1014.1 |
| 20260905055444 | 81 | 152 | 3.0 | 8.0 | 0.00 | 0.00 | 0.00 | 77 | 1014.2 |
| 20260905054944 | 81 | 130 | 3.0 | 8.0 | 0.00 | 0.00 | 0.00 | 77 | 1014.2 |
| 20260905054444 | 81 | 138 | 3.0 | 8.0 | 0.00 | 0.00 | 0.00 | 76 | 1014.2 |
| 20260905054215 | 81 | 134 | 3.0 | 7.0 | 0.00 | 0.00 | 0.00 | 76 | 1014.2 |